Regional Weather Roundup
Issued by NWS Cleveland, OH

Home | Current Version | Previous Version | Graphics & Text | Print | Product List | Glossary On
Versions: 1 2 3 4 5 6 7 8 9 10 11 12 13 14 15 16 17 18 19 20 21 22 23 24 25 26 27 28 29 30 31 32 33 34 35 36 37 38 39 40 41 42 43 44 45 46 47 48 49 50
000
ASUS41 KCLE 262202
RWRCLE
OHIO REGIONAL WEATHER ROUNDUP
NATIONAL WEATHER SERVICE CLEVELAND, OH
600 PM EDT FRI AUG 26 2016

NOTE: "FAIR" INDICATES FEW OR NO CLOUDS BELOW 12,000 FEET WITH NO
SIGNIFICANT WEATHER AND/OR OBSTRUCTIONS TO VISIBILITY.

OHZ001>008-015>018-024>027-034-035-043-044-262300-
   NORTHWEST OHIO

CITY           SKY/WX    TMP DP  RH WIND       PRES   REMARKS
DEFIANCE       SUNNY     85  58  39 CALM      30.12S
FINDLAY        SUNNY     85  61  44 VRB3      30.11S
TOLEDO EXPRESS SUNNY     83  61  47 NW6       30.11S
TOLEDO EXEC    SUNNY     85  61  44 W5        30.11S
LIMA           SUNNY     83  69  62 NE5       30.12R
$$

OHZ009>014-019>023-028>033-038-089-262300-
   NORTHEAST OHIO

CITY           SKY/WX    TMP DP  RH WIND       PRES   REMARKS
CLE-HOPKINS    SUNNY     81  60  48 N8        30.15S
CLE-LAKEFRONT  SUNNY     80  62  54 N5        30.12F
CUY CO. ARPT   SUNNY     81  59  47 N6        30.14F
LORAIN-ELYRIA  SUNNY     81  54  39 N7        30.13F
ASHTABULA      SUNNY     78  64  61 N5        30.15S
AKRON-CANTON   MOSUNNY   86  53  32 CALM      30.13S
WOOSTER        SUNNY     84  57  39 N7        30.13S
MANSFIELD      SUNNY     84  59  42 N5        30.15R
YOUNGSTOWN     MOSUNNY   84  61  45 NW7       30.13F
$$

OHZ042-051>053-060>062-070>072-077>081-262300-
  SOUTHWEST OHIO

CITY           SKY/WX    TMP DP  RH WIND       PRES   REMARKS
CINC-COVINGTON PTSUNNY   91  71  51 W6        30.08S HX  97
CINC-LUNKEN    CLOUDY    85  75  72 E12       30.07R HX  93
HAMILTON       CLOUDY    86  74  67 E3        30.08R HX  94
DAYTON         MOSUNNY   88  70  55 NW6       30.11S HX  93
WRIGHT-PAT AFB SUNNY     89  70  53 NE3       30.09R HX  94
DAYTON GENERAL CLOUDY    88  71  57 E6        30.09R HX  94
WILMINGTON     MOSUNNY   84  77  79 CALM      30.10R HX  94
$$

OHZ036-037-039>041-045>050-054>059-063>069-073>076-082>088-262300-
  CENTRAL AND SOUTHEAST OHIO

CITY           SKY/WX    TMP DP  RH WIND       PRES   REMARKS
COLUMBUS       MOSUNNY   86  70  58 NE8       30.09S HX  90
OSU AIRPORT    SUNNY     86  70  58 N9        30.10S HX  90
BOLTON FIELD   NOT AVBL
RICKENBACK AFB CLOUDY    87  72  61 E5        30.08S HX  93
NEWARK         MOSUNNY   88  70  55 CALM      30.10S HX  93
MARION         SUNNY     84  65  52 VRB3      30.13S
LANCASTER      PTSUNNY   86  75  69 N3        30.10S HX  95
ZANESVILLE     SUNNY     88  69  53 N6        30.10S HX  92
NEW PHILLY     SUNNY     89  61  38 VRB5      30.11F
$$




USA.gov is the U.S. government's official web portal to all federal, state and local government web resources and services.